Location: Arcones
(41.1182°N, 3.7238°W)
Time: 03:50:51
(UTC+00:00)

IRIDIUM 106 - Pass Details

Date: 21 March 2026
Orbit: 776 x 780 km, 86.4° (Epoch: 17 April)

Event Time Altitude Azimuth Distance (km) Brightness Sun altitude
Exits shadow 21:25:25 41° 267° (W) 1,121 5.4 -32.3°
Maximum altitude 21:25:45 42° 278° (W) 1,112 5.4 -32.4°
Drops below altitude 10° 21:30:42 10° 348° (NNW) 2,339 7.3 -33.1°
Sets 21:33:12 0° 356° (N) 3,271 8.1 -33.5°
